CW1923 Weather Reports


Display with metric or nautical units.
time (UTC)temp
F
wind
direction
speed
MPH
gust
MPH
rain 1hr
in
rain 24hr
in
rain mn
in
humidity
%
barometer
mb
20260503200004 58 178 0.0 0.0 0.00 0.34 0.24 95 1011.8
20260503194503 58 178 0.0 0.0 0.00 0.35 0.24 95 1011.7
20260503192950 58 178 0.0 0.0 0.00 0.35 0.24 95 1011.6
20260503191943 59 178 0.0 0.0 0.00 0.35 0.24 95 1011.5
20260503191445 59 178 0.0 2.0 0.00 0.35 0.24 95 1011.5
20260503190937 59 178 0.0 2.0 0.00 0.35 0.24 95 1011.4
20260503190436 59 183 2.0 5.0 0.01 0.35 0.24 95 1011.4
20260503185932 59 183 2.0 5.0 0.01 0.35 0.24 95 1011.3
20260503185434 59 184 2.0 5.0 0.02 0.35 0.24 95 1011.3
20260503184936 59 185 4.0 7.0 0.02 0.35 0.24 95 1011.3
20260503184435 59 185 2.0 7.0 0.02 0.35 0.24 95 1011.3
20260503183935 60 214 2.0 7.0 0.02 0.35 0.24 95 1011.1
20260503182932 60 254 2.0 7.0 0.02 0.35 0.24 95 1011.3
20260503182432 60 223 2.0 7.0 0.02 0.35 0.24 95 1011.3
20260503181931 60 189 2.0 9.0 0.03 0.35 0.24 94 1011.3
20260503180934 60 197 2.0 7.0 0.06 0.35 0.24 94 1011.3
20260503180432 60 199 4.0 7.0 0.06 0.35 0.23 94 1011.3
20260503175933 60 186 2.0 7.0 0.06 0.35 0.23 94 1011.2
20260503175436 60 194 2.0 7.0 0.06 0.34 0.22 94 1011.2
20260503174916 60 194 2.0 7.0 0.08 0.34 0.22 93 1011.3
20260503174416 60 195 2.0 7.0 0.08 0.34 0.22 93 1011.2
20260503173915 60 195 4.0 7.0 0.08 0.34 0.22 93 1011.3
20260503173417 60 197 4.0 11.0 0.08 0.34 0.22 93 1011.3
20260503172915 60 202 4.0 11.0 0.07 0.33 0.21 92 1011.3
20260503172415 60 178 4.0 11.0 0.07 0.33 0.21 92 1011.3
20260503171913 61 223 2.0 9.0 0.06 0.32 0.20 91 1011.3
20260503171410 61 326 2.0 7.0 0.06 0.31 0.19 91 1011.3
20260503170911 61 349 2.0 7.0 0.04 0.30 0.18 90 1011.3
20260503170410 61 300 4.0 9.0 0.03 0.29 0.17 90 1011.4
20260503150844 63 190 5.0 14.0 0.00 0.26 0.14 87 1010.9
20260503150341 63 180 5.0 16.0 0.00 0.26 0.14 88 1010.8
20260503131335 62 176 4.0 12.0 0.00 0.26 0.14 95 1011.4
20260503130834 62 168 4.0 12.0 0.00 0.26 0.14 95 1011.4
20260503110331 60 191 4.0 9.0 0.04 0.23 0.11 95 1011.7
20260503090303 61 297 4.0 7.0 0.05 0.17 0.05 96 1011.8
20260503081304 61 197 0.0 0.0 0.00 0.12 0.00 97 1011.5
20260503080806 60 197 0.0 0.0 0.00 0.12 0.00 97 1011.5
20260503080306 60 197 0.0 0.0 0.00 0.12 0.00 97 1011.5
20260503072256 60 192 0.0 2.0 0.00 0.12 0.00 97 1011.2
20260503071743 60 192 0.0 4.0 0.00 0.12 0.00 97 1011.1
20260503071240 60 192 0.0 4.0 0.00 0.12 0.00 98 1011.1
20260503070740 60 191 0.0 0.0 0.00 0.12 0.00 97 1011.0
20260503070241 60 191 0.0 0.0 0.00 0.12 0.00 97 1010.9
20260503060234 58 191 0.0 4.0 0.00 0.12 0.00 97 1010.9
20260503054728 57 191 0.0 0.0 0.00 0.12 0.00 97 1011.0
20260503054231 57 191 0.0 0.0 0.00 0.12 0.00 97 1011.0
20260503053232 57 191 0.0 0.0 0.00 0.12 0.00 97 1010.9
20260503052731 57 191 0.0 0.0 0.00 0.12 0.00 97 1011.0
20260503052233 56 191 0.0 0.0 0.00 0.12 0.00 97 1011.0
20260503051729 56 191 0.0 0.0 0.00 0.12 0.00 97 1010.9
20260503051229 56 191 0.0 0.0 0.00 0.12 0.00 97 1011.0
20260503050733 56 191 0.0 0.0 0.00 0.12 0.00 97 1011.1
20260503050229 56 191 0.0 0.0 0.00 0.12 0.00 97 1010.9
20260503045732 56 191 0.0 0.0 0.00 0.12 0.00 97 1010.9
20260503045221 56 191 0.0 0.0 0.00 0.12 0.00 97 1011.0
20260503044205 56 191 0.0 0.0 0.00 0.12 0.00 97 1011.0
20260503043703 56 191 0.0 0.0 0.00 0.12 0.00 97 1011.1
20260503043202 56 191 0.0 0.0 0.00 0.12 0.00 97 1011.1
20260503041645 56 191 0.0 0.0 0.00 0.12 0.00 97 1011.4
20260503041133 56 191 0.0 0.0 0.00 0.12 0.00 96 1011.5
20260503040631 56 191 0.0 0.0 0.00 0.12 0.00 96 1011.4
20260503040131 56 191 0.0 0.0 0.00 0.12 0.00 97 1011.4
20260503035634 56 191 0.0 0.0 0.00 0.12 0.00 97 1011.3
20260503035132 56 191 0.0 0.0 0.00 0.12 0.00 97 1011.4
20260503034632 56 191 0.0 0.0 0.00 0.12 0.00 97 1011.4
20260503034131 56 191 0.0 0.0 0.00 0.12 0.00 97 1011.4
20260503033630 56 191 0.0 0.0 0.00 0.12 0.00 97 1011.3
20260503033131 57 191 0.0 0.0 0.00 0.12 0.00 96 1011.4
20260503032630 57 191 0.0 0.0 0.00 0.12 0.00 96 1011.4
20260503032128 57 191 0.0 0.0 0.00 0.12 0.00 96 1011.3
20260503031627 57 191 0.0 0.0 0.00 0.12 0.00 96 1011.3
20260503031112 57 191 0.0 0.0 0.00 0.12 0.00 97 1011.4
20260503030609 57 191 0.0 0.0 0.00 0.12 0.00 97 1011.3
20260503030105 57 191 0.0 0.0 0.00 0.12 0.00 97 1011.5
20260503025604 57 191 0.0 0.0 0.00 0.12 0.00 96 1011.5
20260503025103 57 191 0.0 0.0 0.00 0.12 0.00 96 1011.6
20260503024603 57 191 0.0 0.0 0.00 0.12 0.00 96 1011.6
20260503023601 58 191 0.0 0.0 0.00 0.12 0.00 96 1011.5
20260503023101 58 191 0.0 0.0 0.00 0.12 0.00 96 1011.6
20260503022601 58 191 0.0 0.0 0.00 0.12 0.00 96 1011.7
20260503022105 58 191 0.0 0.0 0.00 0.12 0.00 96 1011.8
20260503021603 58 191 0.0 0.0 0.00 0.12 0.00 96 1011.8
20260503020104 58 191 0.0 0.0 0.00 0.12 0.00 96 1011.9
20260503015604 58 191 0.0 0.0 0.00 0.12 0.00 96 1012.1
20260503015101 58 191 0.0 0.0 0.00 0.12 0.00 96 1012.1
20260503014604 58 191 0.0 0.0 0.00 0.12 0.00 96 1012.2
20260503014101 58 191 0.0 0.0 0.00 0.12 0.00 96 1012.2
20260503013603 58 191 0.0 0.0 0.00 0.12 0.00 96 1012.3
20260503013104 58 191 0.0 0.0 0.00 0.12 0.00 96 1012.3
20260503012602 58 191 0.0 0.0 0.00 0.12 0.00 96 1012.2
20260503012103 58 191 0.0 0.0 0.00 0.12 0.00 96 1012.3
20260503011600 58 191 0.0 0.0 0.00 0.12 0.00 96 1012.2
20260503011056 58 191 0.0 0.0 0.00 0.12 0.00 96 1012.2
20260503010034 58 191 0.0 0.0 0.00 0.12 0.00 96 1012.3
20260503005531 58 191 0.0 0.0 0.00 0.12 0.00 96 1012.3
20260503005030 58 191 0.0 0.0 0.00 0.12 0.00 96 1012.2
20260503004531 58 191 0.0 0.0 0.00 0.12 0.00 96 1012.3
20260503004032 58 191 0.0 0.0 0.00 0.12 0.00 96 1012.4
20260503003528 58 191 0.0 0.0 0.00 0.12 0.00 96 1012.4
20260503003026 58 191 0.0 0.0 0.00 0.12 0.00 96 1012.5
20260503002007 58 191 0.0 0.0 0.00 0.12 0.00 96 1012.7
20260503001004 58 191 0.0 4.0 0.00 0.12 0.00 95 1012.8
20260503000502 58 191 0.0 4.0 0.00 0.12 0.00 95 1012.8
20260503000003 58 191 0.0 4.0 0.00 0.12 0.00 95 1012.9
20260502235502 58 191 0.0 0.0 0.00 0.12 0.00 95 1012.9
20260502235003 58 191 0.0 0.0 0.00 0.12 0.00 95 1013.1
20260502234504 58 191 0.0 0.0 0.00 0.12 0.00 95 1013.2
20260502234003 58 191 0.0 0.0 0.00 0.12 0.00 95 1013.2
20260502233503 58 191 0.0 0.0 0.00 0.12 0.00 95 1013.2
20260502233004 59 191 0.0 4.0 0.00 0.12 0.00 95 1013.2
20260502232503 59 191 0.0 4.0 0.00 0.12 0.00 95 1013.3
20260502232002 59 192 0.0 4.0 0.00 0.12 0.00 95 1013.4
20260502231452 59 192 0.0 4.0 0.00 0.12 0.00 95 1013.3
20260502230945 59 192 0.0 0.0 0.00 0.12 0.00 94 1013.4
20260502225940 59 192 0.0 0.0 0.00 0.12 0.00 95 1013.5
20260502225437 59 192 0.0 0.0 0.00 0.12 0.00 95 1013.5
20260502224934 59 192 0.0 0.0 0.00 0.12 0.00 95 1013.6
20260502224432 59 192 0.0 4.0 0.00 0.12 0.00 94 1013.7
20260502223932 59 192 2.0 7.0 0.00 0.12 0.00 94 1013.7
20260502223429 59 192 2.0 7.0 0.01 0.12 0.00 94 1013.4
20260502222430 59 122 0.0 0.0 0.01 0.12 0.00 94 1013.2
20260502221932 59 122 0.0 0.0 0.01 0.12 0.00 94 1013.1
20260502221428 59 122 0.0 0.0 0.01 0.12 0.00 94 1013.1
20260502220928 59 117 0.0 0.0 0.01 0.12 0.00 93 1013.1
20260502220427 59 116 0.0 2.0 0.01 0.12 0.00 94 1013.1
20260502215923 60 111 0.0 4.0 0.01 0.12 0.12 93 1013.1
20260502215422 60 111 0.0 5.0 0.01 0.12 0.12 93 1013.2
20260502214918 60 111 0.0 5.0 0.01 0.12 0.12 93 1013.2
20260502214418 60 111 2.0 7.0 0.01 0.12 0.12 93 1013.2
20260502213920 60 111 2.0 7.0 0.01 0.12 0.12 92 1013.3
20260502212908 60 122 2.0 4.0 0.00 0.11 0.11 92 1013.2
20260502212409 60 122 2.0 4.0 0.06 0.11 0.11 92 1013.1
20260502211907 60 117 0.0 4.0 0.09 0.11 0.11 91 1013.2
20260502211406 60 117 2.0 5.0 0.09 0.11 0.11 91 1013.1
20260502210903 60 117 2.0 5.0 0.09 0.11 0.11 91 1013.1
20260502210403 61 118 0.0 5.0 0.09 0.11 0.11 90 1013.2
20260502205902 61 218 0.0 0.0 0.09 0.11 0.11 90 1013.4
20260502205354 61 218 0.0 0.0 0.11 0.11 0.11 89 1013.3
20260502204347 62 217 0.0 4.0 0.11 0.11 0.11 87 1013.7
20260502203840 62 216 2.0 5.0 0.11 0.11 0.11 87 1013.6
20260502203341 63 224 2.0 5.0 0.11 0.11 0.11 86 1014.0
20260502202843 63 268 2.0 7.0 0.10 0.10 0.10 85 1014.2
20260502202337 64 272 2.0 7.0 0.04 0.04 0.04 83 1014.4
20260502201336 65 48 2.0 5.0 0.02 0.02 0.02 80 1013.9
20260502200832 65 49 4.0 7.0 0.02 0.02 0.02 79 1013.8